• In Belgium
  • List of Countries
  • For 7 days
  • Water Temperature
  • Satellite Maps
  • Weather Map
  • Weather Widgets
  • user-avatar
    Login

    Hourly Weather Ciudad Real

    Today, 19 October, Friday

    Time Temperature Precipitation Wind Pressure Humidity
    00:00 +14°C° 0 mm 3 mps 702 mmHg 80%
    01:00 +14°C° 0.3 mm 3 mps 702 mmHg 82%
    02:00 +15°C° 0.3 mm 2 mps 702 mmHg 83%
    03:00 +14°C° 0.3 mm 2 mps 702 mmHg 85%
    04:00 +14°C° 0 mm 1 mps 702 mmHg 87%
    05:00 +14°C° 0 mm 1 mps 702 mmHg 88%
    06:00 +13°C° 0 mm 1 mps 702 mmHg 90%
    07:00 +14°C° 0 mm 1 mps 703 mmHg 86%
    08:00 +15°C° 0 mm 1 mps 703 mmHg 82%
    09:00 +16°C° 0 mm 1 mps 704 mmHg 78%
    10:00 +18°C° 0 mm 1 mps 704 mmHg 72%
    11:00 +19°C° 0 mm 1 mps 704 mmHg 67%
    12:00 +18°C° 0 mm 3 mps 704 mmHg 60%
    13:00 +19°C° 0 mm 4 mps 704 mmHg 58%
    14:00 +19°C° 0 mm 4 mps 704 mmHg 55%
    15:00 +20°C° 0 mm 4 mps 704 mmHg 53%
    16:00 +19°C° 0.1 mm 4 mps 704 mmHg 56%
    17:00 +18°C° 0.1 mm 3 mps 704 mmHg 59%
    18:00 +17°C° 0.1 mm 3 mps 704 mmHg 62%
    19:00 +17°C° 0 mm 3 mps 704 mmHg 64%
    20:00 +16°C° 0 mm 3 mps 705 mmHg 65%
    21:00 +16°C° 0 mm 3 mps 705 mmHg 67%
    22:00 +14°C° 0 mm 3 mps 705 mmHg 68%
    23:00 +14°C° 0 mm 3 mps 705 mmHg 70%

    Tomorrow, 20 October, Saturday

    Time Temperature Precipitation Wind Pressure Humidity
    00:00 +13°C° 0 mm 3 mps 705 mmHg 72%
    01:00 +13°C° 0 mm 3 mps 705 mmHg 74%
    02:00 +13°C° 0 mm 4 mps 705 mmHg 77%
    03:00 +13°C° 0 mm 4 mps 705 mmHg 79%
    04:00 +12°C° 0 mm 4 mps 705 mmHg 80%
    05:00 +12°C° 0 mm 4 mps 706 mmHg 80%
    06:00 +12°C° 0 mm 4 mps 706 mmHg 81%
    07:00 +14°C° 0 mm 5 mps 706 mmHg 76%
    08:00 +15°C° 0 mm 5 mps 707 mmHg 71%
    09:00 +17°C° 0 mm 6 mps 707 mmHg 66%
    10:00 +19°C° 0 mm 6 mps 707 mmHg 59%
    11:00 +21°C° 0 mm 7 mps 708 mmHg 51%
    12:00 +23°C° 0 mm 8 mps 708 mmHg 44%
    13:00 +23°C° 0.1 mm 8 mps 708 mmHg 45%
    14:00 +23°C° 0.1 mm 8 mps 708 mmHg 46%
    15:00 +22°C° 0.1 mm 8 mps 707 mmHg 47%
    16:00 +21°C° 0.1 mm 8 mps 707 mmHg 53%
    17:00 +20°C° 0.1 mm 7 mps 707 mmHg 58%
    18:00 +18°C° 0.1 mm 7 mps 707 mmHg 64%
    19:00 +17°C° 0.1 mm 7 mps 708 mmHg 68%
    20:00 +17°C° 0.1 mm 7 mps 708 mmHg 72%
    21:00 +16°C° 0.1 mm 7 mps 708 mmHg 76%
    22:00 +16°C° 0.1 mm 6 mps 708 mmHg 77%
    23:00 +16°C° 0.1 mm 6 mps 708 mmHg 78%

    Day after tomorrow, 21 October, Sunday

    Time Temperature Precipitation Wind Pressure Humidity
    00:00 +16°C° 0.1 mm 5 mps 708 mmHg 79%
    01:00 +16°C° 0.3 mm 5 mps 708 mmHg 80%
    02:00 +16°C° 0.3 mm 5 mps 708 mmHg 80%
    03:00 +15°C° 0.3 mm 4 mps 708 mmHg 81%
    04:00 +15°C° 0.6 mm 4 mps 708 mmHg 82%
    05:00 +15°C° 0.6 mm 4 mps 708 mmHg 84%
    06:00 +15°C° 0.6 mm 4 mps 708 mmHg 85%
    07:00 +17°C° 0.2 mm 4 mps 709 mmHg 79%
    08:00 +17°C° 0.2 mm 5 mps 709 mmHg 73%
    09:00 +20°C° 0.2 mm 6 mps 709 mmHg 67%
    10:00 +21°C° 0 mm 5 mps 710 mmHg 60%
    11:00 +23°C° 0 mm 5 mps 710 mmHg 54%
    12:00 +25°C° 0 mm 4 mps 710 mmHg 47%
    13:00 +26°C° 0.1 mm 4 mps 710 mmHg 45%
    14:00 +26°C° 0.1 mm 3 mps 709 mmHg 43%
    15:00 +26°C° 0.1 mm 3 mps 709 mmHg 41%
    16:00 +25°C° 0 mm 3 mps 709 mmHg 45%
    17:00 +22°C° 0 mm 3 mps 709 mmHg 50%
    18:00 +21°C° 0 mm 2 mps 709 mmHg 55%
    19:00 +20°C° 0 mm 2 mps 709 mmHg 59%
    20:00 +19°C° 0 mm 2 mps 710 mmHg 64%
    21:00 +19°C° 0 mm 2 mps 710 mmHg 68%
    22:00 +18°C° 0 mm 2 mps 710 mmHg 71%
    23:00 +18°C° 0 mm 1 mps 710 mmHg 73%

    22 October, Monday

    Time Temperature Precipitation Wind Pressure Humidity
    00:00 +18°C° 0 mm 1 mps 710 mmHg 76%
    01:00 +18°C° 0 mm 1 mps 709 mmHg 78%
    02:00 +16°C° 0 mm 1 mps 709 mmHg 80%
    03:00 +16°C° 0 mm 1 mps 709 mmHg 82%
    04:00 +15°C° 0 mm 1 mps 709 mmHg 83%
    05:00 +15°C° 0 mm 1 mps 709 mmHg 85%
    06:00 +15°C° 0 mm 1 mps 709 mmHg 86%
    07:00 +16°C° 0 mm 1 mps 710 mmHg 80%
    08:00 +19°C° 0 mm 1 mps 710 mmHg 74%
    09:00 +20°C° 0 mm 1 mps 710 mmHg 68%
    10:00 +20°C° 0 mm 2 mps 710 mmHg 61%
    11:00 +23°C° 0 mm 2 mps 710 mmHg 54%
    12:00 +25°C° 0 mm 2 mps 711 mmHg 46%
    13:00 +25°C° 0 mm 2 mps 710 mmHg 43%
    14:00 +25°C° 0 mm 2 mps 710 mmHg 40%
    15:00 +26°C° 0 mm 2 mps 710 mmHg 37%
    16:00 +25°C° 0 mm 2 mps 710 mmHg 39%
    17:00 +23°C° 0 mm 2 mps 710 mmHg 41%
    18:00 +21°C° 0 mm 2 mps 710 mmHg 44%
    19:00 +20°C° 0 mm 2 mps 710 mmHg 44%
    20:00 +19°C° 0 mm 2 mps 711 mmHg 44%
    21:00 +19°C° 0 mm 2 mps 711 mmHg 44%
    22:00 +18°C° 0 mm 2 mps 711 mmHg 48%
    23:00 +17°C° 0 mm 2 mps 711 mmHg 52%

    23 October, Tuesday

    Time Temperature Precipitation Wind Pressure Humidity
    00:00 +17°C° 0 mm 2 mps 711 mmHg 56%
    01:00 +16°C° 0 mm 2 mps 711 mmHg 61%
    02:00 +16°C° 0 mm 2 mps 711 mmHg 65%
    03:00 +15°C° 0 mm 2 mps 711 mmHg 70%
    04:00 +15°C° 0 mm 2 mps 711 mmHg 74%
    05:00 +15°C° 0 mm 2 mps 711 mmHg 78%
    06:00 +14°C° 0 mm 2 mps 711 mmHg 82%
    07:00 +16°C° 0 mm 2 mps 711 mmHg 78%
    08:00 +17°C° 0 mm 3 mps 711 mmHg 73%
    09:00 +18°C° 0 mm 3 mps 712 mmHg 69%
    10:00 +19°C° 0 mm 3 mps 712 mmHg 63%
    11:00 +21°C° 0 mm 2 mps 712 mmHg 56%
    12:00 +23°C° 0 mm 2 mps 712 mmHg 50%
    13:00 +24°C° 0 mm 2 mps 711 mmHg 47%
    14:00 +24°C° 0 mm 2 mps 711 mmHg 45%
    15:00 +24°C° 0 mm 2 mps 710 mmHg 42%
    16:00 +23°C° 0 mm 2 mps 710 mmHg 46%
    17:00 +21°C° 0 mm 2 mps 710 mmHg 49%
    18:00 +20°C° 0 mm 2 mps 710 mmHg 53%
    19:00 +19°C° 0 mm 2 mps 711 mmHg 55%
    20:00 +19°C° 0 mm 2 mps 711 mmHg 57%
    21:00 +18°C° 0 mm 2 mps 711 mmHg 60%
    22:00 +17°C° 0 mm 2 mps 711 mmHg 61%
    23:00 +17°C° 0 mm 2 mps 711 mmHg 62%

    24 October, Wednesday

    Time Temperature Precipitation Wind Pressure Humidity
    00:00 +16°C° 0 mm 2 mps 711 mmHg 64%
    01:00 +16°C° 0 mm 2 mps 711 mmHg 66%
    02:00 +15°C° 0 mm 2 mps 711 mmHg 68%
    03:00 +15°C° 0 mm 2 mps 711 mmHg 70%
    04:00 +15°C° 0 mm 1 mps 711 mmHg 72%
    05:00 +14°C° 0 mm 1 mps 711 mmHg 75%
    06:00 +14°C° 0 mm 1 mps 711 mmHg 77%
    07:00 +15°C° 0 mm 1 mps 711 mmHg 72%
    08:00 +18°C° 0 mm 1 mps 712 mmHg 67%
    09:00 +18°C° 0 mm 2 mps 712 mmHg 62%
    10:00 +19°C° 0 mm 2 mps 712 mmHg 55%
    11:00 +21°C° 0 mm 2 mps 712 mmHg 48%
    12:00 +23°C° 0 mm 2 mps 713 mmHg 42%
    13:00 +24°C° 0 mm 2 mps 712 mmHg 39%
    14:00 +24°C° 0 mm 2 mps 712 mmHg 36%
    15:00 +25°C° 0 mm 2 mps 711 mmHg 34%
    16:00 +23°C° 0 mm 2 mps 711 mmHg 38%
    17:00 +21°C° 0 mm 2 mps 711 mmHg 41%
    18:00 +19°C° 0 mm 2 mps 711 mmHg 45%
    19:00 +19°C° 0 mm 2 mps 711 mmHg 48%
    20:00 +18°C° 0 mm 2 mps 712 mmHg 50%
    21:00 +17°C° 0 mm 2 mps 712 mmHg 53%
    22:00 +18°C° 0 mm 1 mps 712 mmHg 54%
    23:00 +16°C° 0 mm 1 mps 712 mmHg 56%
    Show more